This is the latest recevied weather packets stored in our database for station/object K4VEB. If no packets are shown the sender has not sent any weather packets the latest 10 day(s).
| Time | Temp. | Humidity | Pressure | Rain* | Wind** | Luminosity | Snow |
|---|---|---|---|---|---|---|---|
| 1778029244 | 24.44° C | 56% | 1015.4 hPa | 0 mm | - | 0 W/m² | - |
| 1778028941 | 25° C | 56% | 1015.3 hPa | 0 mm | - | 0 W/m² | - |
| 1778028637 | 25° C | 56% | 1015.2 hPa | 0 mm | - | 0 W/m² | - |
| 1778028335 | 25° C | 56% | 1015 hPa | 0 mm | - | 0 W/m² | - |
| 1778028031 | 25° C | 56% | 1015.1 hPa | 0 mm | - | 0 W/m² | - |
| 1778027424 | 25.56° C | 55% | 1014.8 hPa | 0 mm | - | 0 W/m² | - |
| 1778027120 | 25.56° C | 55% | 1014.7 hPa | 0 mm | - | 0 W/m² | - |
| 1778024393 | 26.67° C | 54% | 1014.1 hPa | 0 mm | - | 28 W/m² | - |
| 1778024090 | 26.67° C | 54% | 1014.1 hPa | 0 mm | - | 28 W/m² | - |
| 1778023788 | 26.67° C | 53% | 1014.3 hPa | 0 mm | - | 36 W/m² | - |
| 1778023486 | 26.67° C | 53% | 1014.1 hPa | 0 mm | - | 42 W/m² | - |
| 1778023183 | 27.22° C | 53% | 1014.2 hPa | 0 mm | - | 51 W/m² | - |
| 1778022880 | 27.22° C | 52% | 1014.2 hPa | 0 mm | - | 56 W/m² | - |
| 1778022578 | 27.22° C | 52% | 1014.2 hPa | 0 mm | - | 66 W/m² | - |
| 1778022276 | 27.78° C | 51% | 1014.1 hPa | 0 mm | - | 67 W/m² | - |
| 1778021971 | 27.78° C | 51% | 1014 hPa | 0 mm | - | 85 W/m² | - |
| 1778021669 | 27.78° C | 50% | 1014.2 hPa | 0 mm | - | 93 W/m² | - |
| 1778021364 | 27.78° C | 50% | 1014.4 hPa | 0 mm | - | 110 W/m² | - |
| 1778021062 | 28.33° C | 49% | 1014.1 hPa | 0 mm | - | 120 W/m² | - |
| 1778020759 | 30° C | 46% | 1014.1 hPa | 0 mm | - | 132 W/m² | - |
| 1778020456 | 30° C | 38% | 1014.3 hPa | 0 mm | - | 146 W/m² | - |
| 1778020152 | 30° C | 38% | 1014 hPa | 0 mm | - | 151 W/m² | - |
| 1778019848 | 30° C | 37% | 1013.8 hPa | 0 mm | - | 181 W/m² | - |
| 1778019544 | 30.56° C | 38% | 1013.9 hPa | 0 mm | - | 116 W/m² | - |
| 1778019242 | 30° C | 38% | 1014.1 hPa | 0 mm | - | 183 W/m² | - |
* Rain latest hour (hover to see other rain measurements)
** Current wind speed in m/s (hover to see current wind gust speed)